VOE2630 LFML-DAAE

Flight info

Callsign VOE2630
Flight time N/A
Altitude 39000
Route TINOT UN854 RASPA DCT LUNOR DCT DOLIS UN736 BJA
Aircraft A319/M-SDFGIJ1RWY/LB1

Departure

Time 2026-04-30 14:03
Airport Marseille Provence Airport (LFML)

Arrival

Time N/A
Airport Soummam–Abane Ramdane Airport (DAAE)
Time Latitude Longitude Altitude Speed Heading
2026-04-30 13:47 43.44164 5.21767 38 ft 0 kts 89°
2026-04-30 13:54 43.44164 5.21766 38 ft 0 kts 89°
2026-04-30 13:59 43.44164 5.21768 38 ft 0 kts 89°
2026-04-30 14:00 43.44162 5.21799 38 ft 7 kts 107°
2026-04-30 14:00 43.43982 5.21709 35 ft 17 kts 140°
2026-04-30 14:00 43.43895 5.21825 37 ft 18 kts 135°
2026-04-30 14:01 43.43805 5.21952 37 ft 19 kts 134°
2026-04-30 14:01 43.43691 5.22069 37 ft 21 kts 150°
2026-04-30 14:01 43.43561 5.22174 37 ft 22 kts 150°
2026-04-30 14:01 43.43418 5.22277 36 ft 23 kts 167°
2026-04-30 14:02 43.43334 5.22169 38 ft 16 kts 266°
2026-04-30 14:02 43.43337 5.22006 36 ft 18 kts 287°
2026-04-30 14:02 43.43379 5.21923 35 ft 0 kts 313°
2026-04-30 14:02 43.43387 5.21912 35 ft 9 kts 313°
2026-04-30 14:03 43.43648 5.21537 37 ft 98 kts 314°
2026-04-30 14:03 43.44287 5.20625 223 ft 147 kts 314°
2026-04-30 14:03 43.45003 5.19601 979 ft 157 kts 314°
2026-04-30 14:03 43.45828 5.18433 1490 ft 179 kts 315°
2026-04-30 14:04 43.46726 5.17163 2158 ft 195 kts 316°
2026-04-30 14:04 43.47581 5.15562 2629 ft 223 kts 289°
2026-04-30 14:04 43.47549 5.13395 3376 ft 235 kts 244°
2026-04-30 14:04 43.46527 5.11712 4403 ft 229 kts 205°
2026-04-30 14:05 43.45045 5.11011 5542 ft 224 kts 190°
2026-04-30 14:05 43.43532 5.10461 6628 ft 226 kts 191°
2026-04-30 14:05 43.42002 5.09912 7594 ft 230 kts 192°
2026-04-30 14:05 43.40442 5.09346 8602 ft 233 kts 194°
2026-04-30 14:06 43.38861 5.08769 9645 ft 236 kts 195°
2026-04-30 14:06 43.36037 5.07791 10762 ft 271 kts 194°
2026-04-30 14:07 43.32028 5.06479 11731 ft 321 kts 194°
2026-04-30 14:07 43.29773 5.05744 12108 ft 345 kts 194°
2026-04-30 14:07 43.27358 5.04954 12455 ft 367 kts 194°
2026-04-30 14:08 43.22213 5.04297 13997 ft 387 kts 168°
2026-04-30 14:08 43.19787 5.05956 14748 ft 398 kts 143°
2026-04-30 14:08 43.16546 5.12249 16296 ft 412 kts 120°
2026-04-30 14:09 43.15330 5.15821 17081 ft 415 kts 115°
2026-04-30 14:09 43.14189 5.19481 17801 ft 421 kts 114°
2026-04-30 14:09 43.11340 5.26505 19014 ft 425 kts 134°
2026-04-30 14:10 43.09173 5.29264 19544 ft 426 kts 147°
2026-04-30 14:10 43.06620 5.31318 20077 ft 426 kts 158°
2026-04-30 14:10 43.03829 5.32662 20624 ft 426 kts 169°
2026-04-30 14:10 43.00901 5.33296 21169 ft 426 kts 180°
2026-04-30 14:11 42.97927 5.33292 21659 ft 428 kts 186°
2026-04-30 14:11 42.94939 5.33099 22191 ft 431 kts 185°
2026-04-30 14:11 42.91920 5.32906 22705 ft 435 kts 185°
2026-04-30 14:11 42.88889 5.32715 23207 ft 438 kts 185°
2026-04-30 14:12 42.85827 5.32523 23742 ft 441 kts 186°
2026-04-30 14:12 42.82754 5.32334 24166 ft 444 kts 185°
2026-04-30 14:12 42.79644 5.32144 24586 ft 447 kts 186°
2026-04-30 14:12 42.76532 5.31950 24986 ft 450 kts 186°
2026-04-30 14:13 42.73395 5.31749 25382 ft 452 kts 186°
2026-04-30 14:13 42.70245 5.31590 25771 ft 456 kts 182°
2026-04-30 14:13 42.67062 5.31915 26139 ft 462 kts 177°
2026-04-30 14:13 42.63855 5.32409 26520 ft 465 kts 176°
2026-04-30 14:14 42.60630 5.32904 26872 ft 467 kts 177°
2026-04-30 14:14 42.57420 5.33387 27229 ft 470 kts 177°
2026-04-30 14:14 42.54113 5.33879 27599 ft 472 kts 177°
2026-04-30 14:14 42.50839 5.34364 27936 ft 475 kts 177°
2026-04-30 14:15 42.47542 5.34856 28260 ft 478 kts 177°
2026-04-30 14:15 42.44270 5.35350 28655 ft 478 kts 177°
2026-04-30 14:15 42.40959 5.35855 29144 ft 478 kts 177°
2026-04-30 14:15 42.37657 5.36359 29649 ft 477 kts 177°
2026-04-30 14:16 42.34357 5.36861 30178 ft 476 kts 178°
2026-04-30 14:16 42.31064 5.37358 30594 ft 475 kts 178°
2026-04-30 14:16 42.27783 5.37848 31010 ft 475 kts 178°
2026-04-30 14:16 42.24498 5.38339 31446 ft 474 kts 179°
2026-04-30 14:17 42.21220 5.38831 31879 ft 473 kts 179°
2026-04-30 14:17 42.17952 5.39323 32324 ft 473 kts 179°
2026-04-30 14:17 42.14684 5.39656 32762 ft 467 kts 185°
2026-04-30 14:17 42.11441 5.39658 33204 ft 466 kts 186°
2026-04-30 14:18 42.08198 5.39658 33669 ft 465 kts 186°
2026-04-30 14:18 42.04959 5.39660 34121 ft 464 kts 187°
2026-04-30 14:18 41.98521 5.39662 34974 ft 462 kts 187°
2026-04-30 14:19 41.92103 5.39653 35796 ft 460 kts 187°
2026-04-30 14:19 41.88899 5.39649 36167 ft 460 kts 187°
2026-04-30 14:19 41.85690 5.39643 36527 ft 459 kts 187°
2026-04-30 14:20 41.82496 5.39641 36892 ft 459 kts 187°
2026-04-30 14:20 41.79293 5.39641 37089 ft 460 kts 187°
2026-04-30 14:20 41.72893 5.39647 37116 ft 459 kts 187°
2026-04-30 14:21 41.66488 5.39650 37120 ft 459 kts 187°
2026-04-30 14:22 41.56935 5.39645 37111 ft 458 kts 187°
2026-04-30 14:22 41.47357 5.39654 37108 ft 458 kts 187°
2026-04-30 14:23 41.34594 5.39655 37095 ft 458 kts 187°
2026-04-30 14:24 41.25021 5.39659 37095 ft 458 kts 187°
2026-04-30 14:25 41.12247 5.39659 37085 ft 458 kts 187°
2026-04-30 14:26 41.02703 5.39648 37092 ft 459 kts 187°
2026-04-30 14:27 40.93127 5.39653 37085 ft 459 kts 187°
2026-04-30 14:27 40.86737 5.39667 37093 ft 459 kts 187°
2026-04-30 14:28 40.77140 5.39671 37072 ft 459 kts 187°
2026-04-30 14:28 40.70759 5.39665 37082 ft 458 kts 187°
2026-04-30 14:29 40.59073 5.39667 37085 ft 458 kts 187°
2026-04-30 14:31 40.42026 5.39665 37089 ft 458 kts 187°
2026-04-30 14:31 40.32474 5.39610 37063 ft 457 kts 187°
2026-04-30 14:32 40.22929 5.39426 37070 ft 457 kts 188°
2026-04-30 14:33 40.16574 5.39313 37072 ft 457 kts 188°
2026-04-30 14:33 40.07058 5.39158 37052 ft 457 kts 187°
2026-04-30 14:34 40.00692 5.39061 37063 ft 457 kts 187°
2026-04-30 14:34 39.94325 5.38959 37065 ft 457 kts 187°
2026-04-30 14:35 39.84776 5.38809 37054 ft 457 kts 187°
2026-04-30 14:36 39.78408 5.38708 37061 ft 457 kts 187°
2026-04-30 14:36 39.72054 5.38606 37060 ft 457 kts 187°
2026-04-30 14:37 39.65685 5.38504 37052 ft 457 kts 187°
2026-04-30 14:37 39.59326 5.38412 37063 ft 457 kts 187°
2026-04-30 14:38 39.52952 5.38318 37064 ft 457 kts 187°
2026-04-30 14:38 39.46570 5.38213 37070 ft 457 kts 187°
2026-04-30 14:39 39.40201 5.38104 37064 ft 457 kts 186°
2026-04-30 14:39 39.33876 5.38000 37071 ft 457 kts 186°
2026-04-30 14:40 39.24336 5.37860 37067 ft 457 kts 186°
2026-04-30 14:40 39.19008 5.37774 37054 ft 456 kts 186°
2026-04-30 14:41 39.12686 5.37669 37068 ft 456 kts 186°
2026-04-30 14:41 39.06293 5.37565 37067 ft 456 kts 186°
2026-04-30 14:42 38.99992 5.37437 37063 ft 454 kts 189°
2026-04-30 14:42 38.93716 5.36639 37057 ft 452 kts 191°
2026-04-30 14:43 38.87460 5.35798 37057 ft 451 kts 191°
2026-04-30 14:43 38.81214 5.34955 37056 ft 451 kts 191°
2026-04-30 14:44 38.74960 5.34106 37040 ft 451 kts 191°
2026-04-30 14:44 38.68711 5.33263 37046 ft 451 kts 191°
2026-04-30 14:45 38.62466 5.32437 37058 ft 451 kts 191°
2026-04-30 14:45 38.56211 5.31615 37062 ft 450 kts 191°
2026-04-30 14:46 38.49985 5.30786 37046 ft 450 kts 191°
2026-04-30 14:46 38.43754 5.29959 37057 ft 450 kts 191°
2026-04-30 14:47 38.37544 5.29131 37062 ft 449 kts 191°
2026-04-30 14:47 38.31319 5.28304 37060 ft 449 kts 191°
2026-04-30 14:48 38.25102 5.27475 37056 ft 449 kts 191°
2026-04-30 14:48 38.22003 5.27066 36627 ft 445 kts 191°
2026-04-30 14:48 38.18944 5.26669 36051 ft 441 kts 191°
2026-04-30 14:49 38.15902 5.26333 35489 ft 439 kts 185°
2026-04-30 14:49 38.12845 5.26462 35068 ft 439 kts 182°
2026-04-30 14:49 38.09748 5.26630 34425 ft 452 kts 182°
2026-04-30 14:49 38.06561 5.26797 33155 ft 461 kts 181°
2026-04-30 14:50 38.00120 5.27164 30937 ft 466 kts 181°
2026-04-30 14:50 37.96869 5.27365 29792 ft 468 kts 181°
2026-04-30 14:51 37.90435 5.27762 28071 ft 454 kts 181°
2026-04-30 14:51 37.87289 5.27949 27327 ft 446 kts 181°
2026-04-30 14:51 37.81190 5.28293 25918 ft 432 kts 181°
2026-04-30 14:52 37.78208 5.28456 25218 ft 426 kts 181°
2026-04-30 14:52 37.72348 5.28783 23881 ft 416 kts 181°
2026-04-30 14:52 37.69470 5.28945 23197 ft 411 kts 181°
2026-04-30 14:53 37.63841 5.29267 22041 ft 399 kts 181°
2026-04-30 14:53 37.61078 5.29426 21501 ft 395 kts 181°
2026-04-30 14:54 37.55641 5.29734 20458 ft 387 kts 181°
2026-04-30 14:54 37.50316 5.30028 19395 ft 380 kts 181°
2026-04-30 14:55 37.45063 5.30322 18293 ft 375 kts 180°
2026-04-30 14:55 37.42462 5.30470 17667 ft 373 kts 180°
2026-04-30 14:55 37.37328 5.30764 16541 ft 366 kts 180°
2026-04-30 14:56 37.32285 5.31059 15424 ft 359 kts 180°
2026-04-30 14:56 37.27326 5.31348 14320 ft 354 kts 180°
2026-04-30 14:57 37.24873 5.31488 13759 ft 352 kts 180°
2026-04-30 14:57 37.20053 5.31754 12618 ft 344 kts 180°
2026-04-30 14:58 37.15309 5.32015 11479 ft 338 kts 180°
2026-04-30 14:58 37.12964 5.32147 10918 ft 336 kts 180°
2026-04-30 14:58 37.08466 5.32409 10555 ft 308 kts 180°
2026-04-30 14:59 37.04363 5.32644 10276 ft 285 kts 180°
2026-04-30 15:00 36.98516 5.32965 9769 ft 277 kts 180°
2026-04-30 15:00 36.94689 5.33179 9149 ft 275 kts 180°
2026-04-30 15:01 36.90872 5.33390 8386 ft 273 kts 180°
2026-04-30 15:01 36.89607 5.33461 8137 ft 273 kts 179°
2026-04-30 15:01 36.85197 5.33706 7256 ft 269 kts 179°
2026-04-30 15:02 36.83334 5.33811 6879 ft 267 kts 179°
2026-04-30 15:02 36.81481 5.33916 6502 ft 265 kts 179°
2026-04-30 15:03 36.75994 5.34069 5336 ft 259 kts 193°
2026-04-30 15:03 36.73894 5.31012 5004 ft 233 kts 262°
2026-04-30 15:04 36.73521 5.27177 4754 ft 214 kts 263°
2026-04-30 15:04 36.72904 5.21690 3723 ft 212 kts 263°
2026-04-30 15:05 36.72291 5.16364 2425 ft 200 kts 262°
2026-04-30 15:06 36.71865 5.13063 1527 ft 184 kts 261°
2026-04-30 15:06 36.71311 5.10376 1153 ft 143 kts 252°
2026-04-30 15:07 36.70736 5.08073 868 ft 136 kts 250°
2026-04-30 15:07 36.69989 5.05898 680 ft 139 kts 253°
2026-04-30 15:08 36.70203 5.03628 521 ft 146 kts 332°
2026-04-30 15:08 36.71145 5.06110 926 ft 174 kts 87°
2026-04-30 15:09 36.71719 5.09424 2842 ft 200 kts 76°
2026-04-30 15:09 36.72348 5.12836 4784 ft 214 kts 77°
2026-04-30 15:10 36.73053 5.16499 5468 ft 220 kts 77°
2026-04-30 15:11 36.77432 5.21119 5512 ft 221 kts 28°
2026-04-30 15:11 36.80373 5.21401 5510 ft 217 kts 333°
2026-04-30 15:12 36.82001 5.16773 5509 ft 211 kts 249°
2026-04-30 15:13 36.79711 5.14001 5511 ft 255 kts 210°
2026-04-30 15:14 36.73980 5.09928 5508 ft 260 kts 210°
2026-04-30 15:14 36.69362 5.06686 5503 ft 233 kts 210°
2026-04-30 15:16 36.64259 5.00827 5449 ft 208 kts 256°
2026-04-30 15:17 36.65478 4.94498 3771 ft 205 kts 340°
2026-04-30 15:18 36.69967 4.98775 1775 ft 153 kts 71°
2026-04-30 15:19 36.70643 5.02297 751 ft 132 kts 79°